Skip Page Navigation
NASA JPL Caltech
NASA Logo - Jet Propulsion Laboratory + View the NASA Portal
+ Center for Near-Earth Object Studies
JPL Home Earth Solar System Stars & Galaxies Technology
JPL Solar System Dynamics
BODIES ORBITS EPHEMERIDES TOOLS PHYSICAL DATA DISCOVERY FAQ SITE MAP
IMPORTANT: The SSD Announcement email list is now available. Major changes are coming in the near future, including possible hostname and/or URL changes. To be notified of such changes, subscribe to this email list.

Please visit this page for more details.


JPL Small-Body Database Browser
Search: [ help ]  
269690 (1996 RG3)
Classification: Apollo [NEO, PHA]          SPK-ID: 2269690
Ephemeris | Orbit Diagram | Orbital Elements | Mission Design | Physical Parameters | Discovery Circumstances | Close-Approach Data ]

[ hide orbit diagram ]

For accurate long-term ephemerides, please instead use our Horizons system.This orbit viewer was implemented using two-body methods, and hence should not be used for determining accurate long-term trajectories (over several years or decades) or planetary encounter circumstances.


[ revert to old Java-based viewer ]

Orbital Elements at Epoch 2458600.5 (2019-Apr-27.0) TDB
Reference: JPL 52 (heliocentric ecliptic J2000)
 Element Value Uncertainty (1-sigma)   Units 
e .6051392329706268 2.9596e-08  
a 1.999482016540056 5.6557e-09 au
q .7895170027124445 5.8896e-08 au
i 3.5719070344731 7.7366e-06 deg
node 158.2037537820974 9.9425e-05 deg
peri 300.083030744494 0.00010077 deg
M 320.9593985145073 1.0769e-05 deg
tp 2458712.492433037602
(2019-Aug-16.99243304)
3.1031e-05 TDB
period 1032.701197201546
2.83
4.3816e-06
1.2e-08
d
yr
n .3486003511718027 1.4791e-09 deg/d
Q 3.209447030367668 9.0782e-09 au
  Orbit Determination Parameters
   # obs. used (total)      239  
   data-arc span      7554 days (20.68 yr)  
   first obs. used      1996-09-11  
   last obs. used      2017-05-18  
   planetary ephem.      DE431  
   SB-pert. ephem.      SB431-N16  
   condition code      0  
   norm. resid. RMS      .57114  
   source      ORB  
   producer      Otto Matic  
   solution date      2017-May-19 05:49:33  

Additional Information
 Earth MOID = .00280008 au 
 Jupiter MOID = 2.00859 au 
 T_jup = 3.587 
[ show covariance matrix ]

Ephemeris | Orbit Diagram | Orbital Elements | Mission Design | Physical Parameters | Discovery Circumstances | Close-Approach Data ]

Physical Parameter Table
Parameter Symbol Value Units Sigma Reference Notes
absolute magnitude H 18.4   n/a MPO310762  
diameter diameter 0.888 km 0.431 urn:nasa:pds:neowise_diameters_albedos::2.0[neos] (http://adsabs.harvard.edu/abs/2015ApJ...814..117N)  
geometric albedo albedo 0.098   0.107 urn:nasa:pds:neowise_diameters_albedos::2.0[neos] (http://adsabs.harvard.edu/abs/2015ApJ...814..117N)  

269690 (1996 RG3)          Discovered 1996-Sep-14 by Spacewatch at Kitt Peak
Reference: 20110418/Numbers.arcLast Updated: 2011-04-22

